Epoch 2004 Apr. 25.0 TT = JDT 2453120.5 T 2004 Apr. 17.09009 TT MPC q 0.1682691 (2000.0) P Q z +0.0042248 Peri. 332.78609 -0.79295297 -0.06301319 +/-0.0000191 Node 222.77771 -0.25279401 -0.87096027 e 0.9992891 Incl. 63.16462 -0.55436520 +0.48729617
m1 = 9.0 + 5 logΔ + 16.5 log r [ ,-22] ( 〜2004年 3月26日) m1 = 7.8 + 5 logΔ + 7.3 log r [-22, 22] (2004年 3月26日〜2004年 5月 9日) m1 = 9.0 + 5 logΔ + 16.5 log r [ 22, 60] (2004年 5月 9日〜2004年 6月16日) m1 = 12.8 + 5 logΔ + 11.0 log r [ 60, ] (2004年 6月16日〜 )